MCX4504 KBHM-KMIA

Flight info

Callsign MCX4504
Flight time 1h 30m
Altitude 33000
Route GUMMP MGMRY ACORI FROGZ5
Aircraft CRJ7/M-SDFGIRWY/S

Departure

Time 2026-05-03 22:03
Airport Birmingham-Shuttlesworth International Airport (KBHM)

Arrival

Time 2026-05-03 23:34
Airport Miami International Airport (KMIA)
Time Latitude Longitude Altitude Speed Heading
2026-05-03 21:37 33.56258 -86.75316 606 ft 0 kts 146°
2026-05-03 21:52 33.56259 -86.75317 606 ft 2 kts 146°
2026-05-03 21:52 33.56279 -86.75336 612 ft 4 kts 133°
2026-05-03 21:52 33.56292 -86.75363 617 ft 4 kts 100°
2026-05-03 21:53 33.56288 -86.75384 606 ft 1 kts 56°
2026-05-03 21:53 33.56285 -86.75388 606 ft 0 kts 56°
2026-05-03 21:55 33.56287 -86.75386 606 ft 0 kts 56°
2026-05-03 21:55 33.56287 -86.75385 606 ft 0 kts 56°
2026-05-03 21:56 33.56288 -86.75383 606 ft 1 kts 56°
2026-05-03 21:56 33.56302 -86.75358 614 ft 6 kts 55°
2026-05-03 21:57 33.56348 -86.75340 612 ft 9 kts 334°
2026-05-03 21:57 33.56369 -86.75411 606 ft 11 kts 243°
2026-05-03 21:57 33.56337 -86.75465 608 ft 13 kts 235°
2026-05-03 21:57 33.56257 -86.75604 611 ft 15 kts 235°
2026-05-03 21:58 33.56196 -86.75708 612 ft 16 kts 235°
2026-05-03 21:58 33.56129 -86.75823 611 ft 18 kts 235°
2026-05-03 21:58 33.56060 -86.75944 608 ft 17 kts 235°
2026-05-03 21:58 33.55987 -86.76070 613 ft 19 kts 235°
2026-05-03 21:59 33.55936 -86.76157 614 ft 17 kts 235°
2026-05-03 21:59 33.55872 -86.76267 606 ft 17 kts 235°
2026-05-03 21:59 33.55807 -86.76383 612 ft 17 kts 236°
2026-05-03 21:59 33.55738 -86.76504 618 ft 18 kts 235°
2026-05-03 22:00 33.55667 -86.76626 613 ft 18 kts 235°
2026-05-03 22:00 33.55597 -86.76746 613 ft 18 kts 235°
2026-05-03 22:00 33.55530 -86.76861 611 ft 18 kts 235°
2026-05-03 22:00 33.55466 -86.76971 606 ft 15 kts 235°
2026-05-03 22:01 33.55427 -86.77046 613 ft 0 kts 251°
2026-05-03 22:02 33.55431 -86.77095 615 ft 12 kts 298°
2026-05-03 22:02 33.55513 -86.77094 613 ft 14 kts 51°
2026-05-03 22:02 33.55605 -86.76939 623 ft 45 kts 55°
2026-05-03 22:02 33.55893 -86.76439 609 ft 100 kts 56°
2026-05-03 22:03 33.56385 -86.75589 611 ft 143 kts 56°
2026-05-03 22:03 33.56977 -86.74539 784 ft 161 kts 53°
2026-05-03 22:03 33.57605 -86.73386 1236 ft 164 kts 52°
2026-05-03 22:03 33.58238 -86.72247 1767 ft 173 kts 54°
2026-05-03 22:04 33.58956 -86.70940 2047 ft 202 kts 53°
2026-05-03 22:04 33.59791 -86.69460 2530 ft 224 kts 53°
2026-05-03 22:04 33.60698 -86.67846 3173 ft 242 kts 54°
2026-05-03 22:04 33.61662 -86.66108 3650 ft 252 kts 54°
2026-05-03 22:05 33.62636 -86.64350 3880 ft 255 kts 54°
2026-05-03 22:05 33.63625 -86.62553 3957 ft 261 kts 53°
2026-05-03 22:05 33.64636 -86.60724 4043 ft 265 kts 54°
2026-05-03 22:05 33.65645 -86.58884 4057 ft 263 kts 54°
2026-05-03 22:06 33.66638 -86.57044 4054 ft 262 kts 54°
2026-05-03 22:06 33.67664 -86.55225 4294 ft 265 kts 53°
2026-05-03 22:06 33.68609 -86.53365 5290 ft 264 kts 66°
2026-05-03 22:06 33.68839 -86.51176 6172 ft 269 kts 97°
2026-05-03 22:07 33.68138 -86.49091 6970 ft 276 kts 126°
2026-05-03 22:07 33.66680 -86.47586 7729 ft 281 kts 154°
2026-05-03 22:07 33.64818 -86.47003 8430 ft 282 kts 180°
2026-05-03 22:07 33.62865 -86.47235 9215 ft 283 kts 195°
2026-05-03 22:08 33.60945 -86.47820 9993 ft 285 kts 198°
2026-05-03 22:08 33.58986 -86.48474 10412 ft 303 kts 199°
2026-05-03 22:08 33.56882 -86.49164 10678 ft 324 kts 197°
2026-05-03 22:08 33.54628 -86.49817 11024 ft 341 kts 195°
2026-05-03 22:09 33.52268 -86.50420 11620 ft 348 kts 194°
2026-05-03 22:09 33.49891 -86.51016 12367 ft 350 kts 195°
2026-05-03 22:09 33.47499 -86.51633 13108 ft 353 kts 195°
2026-05-03 22:10 33.42686 -86.52875 14491 ft 359 kts 195°
2026-05-03 22:10 33.40236 -86.53509 15101 ft 362 kts 195°
2026-05-03 22:10 33.37763 -86.54148 15694 ft 365 kts 195°
2026-05-03 22:10 33.35267 -86.54791 16279 ft 368 kts 195°
2026-05-03 22:11 33.32750 -86.55440 16852 ft 371 kts 195°
2026-05-03 22:11 33.30212 -86.56091 17427 ft 374 kts 195°
2026-05-03 22:11 33.27656 -86.56750 17996 ft 377 kts 196°
2026-05-03 22:11 33.25076 -86.57413 18558 ft 380 kts 196°
2026-05-03 22:12 33.22483 -86.58077 19037 ft 382 kts 196°
2026-05-03 22:12 33.19876 -86.58748 19525 ft 384 kts 196°
2026-05-03 22:12 33.17250 -86.59420 20003 ft 387 kts 196°
2026-05-03 22:12 33.14607 -86.60097 20486 ft 389 kts 196°
2026-05-03 22:13 33.11950 -86.60779 20953 ft 391 kts 196°
2026-05-03 22:13 33.09283 -86.61457 21392 ft 394 kts 194°
2026-05-03 22:13 33.06515 -86.61478 21791 ft 405 kts 175°
2026-05-03 22:13 33.03743 -86.60737 22214 ft 411 kts 168°
2026-05-03 22:14 33.01038 -86.59719 22621 ft 414 kts 165°
2026-05-03 22:14 32.98290 -86.58628 23023 ft 417 kts 165°
2026-05-03 22:14 32.95519 -86.57554 23401 ft 419 kts 167°
2026-05-03 22:14 32.92726 -86.56555 23777 ft 420 kts 168°
2026-05-03 22:15 32.89900 -86.55574 24085 ft 422 kts 168°
2026-05-03 22:15 32.87077 -86.54582 24378 ft 425 kts 168°
2026-05-03 22:15 32.84236 -86.53586 24679 ft 427 kts 168°
2026-05-03 22:15 32.81385 -86.52583 24981 ft 428 kts 168°
2026-05-03 22:16 32.78520 -86.51578 25266 ft 430 kts 168°
2026-05-03 22:16 32.75642 -86.50568 25557 ft 432 kts 168°
2026-05-03 22:16 32.72752 -86.49556 25831 ft 434 kts 168°
2026-05-03 22:16 32.69854 -86.48538 26108 ft 435 kts 169°
2026-05-03 22:17 32.66946 -86.47518 26371 ft 437 kts 169°
2026-05-03 22:17 32.64026 -86.46499 26632 ft 438 kts 169°
2026-05-03 22:17 32.61094 -86.45473 26884 ft 440 kts 169°
2026-05-03 22:17 32.58153 -86.44445 27138 ft 441 kts 169°
2026-05-03 22:18 32.55208 -86.43415 27384 ft 442 kts 169°
2026-05-03 22:18 32.52256 -86.42387 27629 ft 443 kts 169°
2026-05-03 22:18 32.49328 -86.41364 27875 ft 445 kts 169°
2026-05-03 22:18 32.46355 -86.40325 28096 ft 446 kts 170°
2026-05-03 22:19 32.43375 -86.39288 28327 ft 447 kts 170°
2026-05-03 22:19 32.40385 -86.38248 28621 ft 446 kts 170°
2026-05-03 22:19 32.37414 -86.37215 28935 ft 445 kts 171°
2026-05-03 22:19 32.34441 -86.36180 29244 ft 444 kts 171°
2026-05-03 22:20 32.31470 -86.35148 29596 ft 443 kts 171°
2026-05-03 22:20 32.28518 -86.34123 29893 ft 442 kts 171°
2026-05-03 22:20 32.25572 -86.33099 30188 ft 441 kts 171°
2026-05-03 22:20 32.22712 -86.31698 30392 ft 454 kts 158°
2026-05-03 22:21 32.20046 -86.29641 30620 ft 459 kts 152°
2026-05-03 22:21 32.17541 -86.27360 30826 ft 463 kts 148°
2026-05-03 22:21 32.15109 -86.24844 31025 ft 465 kts 145°
2026-05-03 22:21 32.12722 -86.22260 31233 ft 465 kts 145°
2026-05-03 22:22 32.10334 -86.19679 31439 ft 464 kts 146°
2026-05-03 22:22 32.07919 -86.17166 31632 ft 463 kts 147°
2026-05-03 22:22 32.05484 -86.14682 31872 ft 462 kts 147°
2026-05-03 22:22 32.03074 -86.12206 32162 ft 458 kts 147°
2026-05-03 22:23 32.00677 -86.09745 32455 ft 455 kts 148°
2026-05-03 22:23 31.98301 -86.07306 32754 ft 452 kts 148°
2026-05-03 22:23 31.95931 -86.04874 32968 ft 450 kts 148°
2026-05-03 22:24 31.91203 -86.00030 33100 ft 451 kts 148°
2026-05-03 22:24 31.86448 -85.95160 33125 ft 455 kts 148°
2026-05-03 22:25 31.81686 -85.90289 33137 ft 459 kts 149°
2026-05-03 22:25 31.76856 -85.85299 33134 ft 465 kts 146°
2026-05-03 22:26 31.72372 -85.79661 33135 ft 477 kts 140°
2026-05-03 22:26 31.68017 -85.73735 33136 ft 479 kts 140°
2026-05-03 22:27 31.63560 -85.67950 33126 ft 482 kts 141°
2026-05-03 22:27 31.59050 -85.62102 33114 ft 484 kts 141°
2026-05-03 22:28 31.54512 -85.56226 33104 ft 487 kts 141°
2026-05-03 22:28 31.49946 -85.50324 33135 ft 489 kts 141°
2026-05-03 22:29 31.45355 -85.44401 33139 ft 492 kts 141°
2026-05-03 22:29 31.40775 -85.38502 33143 ft 494 kts 142°
2026-05-03 22:30 31.36144 -85.32542 33145 ft 496 kts 142°
2026-05-03 22:30 31.31486 -85.26561 33142 ft 498 kts 142°
2026-05-03 22:31 31.26814 -85.20572 33137 ft 499 kts 142°
2026-05-03 22:31 31.22123 -85.14565 33141 ft 501 kts 142°
2026-05-03 22:32 31.17415 -85.08546 33129 ft 503 kts 142°
2026-05-03 22:32 31.12683 -85.02511 33123 ft 504 kts 142°
2026-05-03 22:33 31.07935 -84.96461 33118 ft 505 kts 142°
2026-05-03 22:33 31.03202 -84.90436 33115 ft 506 kts 142°
2026-05-03 22:34 30.98433 -84.84378 33121 ft 507 kts 142°
2026-05-03 22:34 30.93653 -84.78320 33117 ft 508 kts 142°
2026-05-03 22:35 30.88866 -84.72261 33117 ft 508 kts 142°
2026-05-03 22:35 30.84069 -84.66198 33114 ft 509 kts 142°
2026-05-03 22:36 30.79299 -84.60177 33120 ft 509 kts 142°
2026-05-03 22:36 30.74486 -84.54114 33118 ft 510 kts 142°
2026-05-03 22:37 30.69670 -84.48055 33109 ft 510 kts 143°
2026-05-03 22:37 30.67258 -84.45027 33109 ft 511 kts 143°
2026-05-03 22:38 30.62656 -84.39251 33104 ft 511 kts 143°
2026-05-03 22:38 30.57814 -84.33181 33104 ft 512 kts 143°
2026-05-03 22:39 30.52969 -84.27121 33101 ft 512 kts 143°
2026-05-03 22:39 30.48149 -84.21102 33103 ft 513 kts 143°
2026-05-03 22:40 30.43287 -84.15035 33099 ft 513 kts 143°
2026-05-03 22:40 30.38310 -84.09164 33105 ft 499 kts 153°
2026-05-03 22:41 30.32735 -84.04546 33106 ft 489 kts 159°
2026-05-03 22:41 30.26908 -84.00639 33105 ft 481 kts 163°
2026-05-03 22:42 30.21064 -83.96900 33103 ft 484 kts 162°
2026-05-03 22:42 30.15215 -83.93028 33100 ft 484 kts 162°
2026-05-03 22:43 30.09360 -83.89155 33099 ft 485 kts 162°
2026-05-03 22:43 30.03499 -83.85286 33098 ft 485 kts 162°
2026-05-03 22:44 29.98627 -83.82070 33092 ft 485 kts 162°
2026-05-03 22:44 29.92757 -83.78206 33093 ft 486 kts 162°
2026-05-03 22:45 29.86881 -83.74346 33092 ft 486 kts 162°
2026-05-03 22:45 29.81008 -83.70500 33089 ft 486 kts 162°
2026-05-03 22:46 29.75136 -83.66616 33095 ft 486 kts 162°
2026-05-03 22:46 29.69256 -83.62776 33096 ft 486 kts 162°
2026-05-03 22:47 29.63414 -83.58955 33088 ft 486 kts 162°
2026-05-03 22:47 29.57534 -83.55114 33093 ft 486 kts 162°
2026-05-03 22:48 29.51649 -83.51272 33088 ft 486 kts 162°
2026-05-03 22:48 29.45755 -83.47435 33092 ft 487 kts 162°
2026-05-03 22:49 29.39854 -83.43593 33089 ft 487 kts 162°
2026-05-03 22:49 29.33950 -83.39759 33087 ft 488 kts 162°
2026-05-03 22:50 29.28037 -83.35936 33086 ft 488 kts 162°
2026-05-03 22:50 29.22055 -83.32381 33081 ft 480 kts 167°
2026-05-03 22:51 29.15957 -83.29331 33079 ft 478 kts 169°
2026-05-03 22:51 29.09849 -83.26314 33080 ft 479 kts 168°
2026-05-03 22:52 29.03747 -83.23228 33080 ft 479 kts 168°
2026-05-03 22:52 28.97687 -83.20162 33070 ft 479 kts 168°
2026-05-03 22:53 28.91581 -83.17075 33076 ft 479 kts 167°
2026-05-03 22:53 28.85483 -83.14000 33075 ft 479 kts 167°
2026-05-03 22:54 28.79384 -83.10927 33073 ft 479 kts 167°
2026-05-03 22:54 28.73290 -83.07860 33074 ft 479 kts 167°
2026-05-03 22:55 28.67187 -83.04793 33070 ft 479 kts 167°
2026-05-03 22:55 28.61087 -83.01732 33063 ft 479 kts 167°
2026-05-03 22:56 28.54978 -82.98669 33072 ft 479 kts 167°
2026-05-03 22:56 28.48870 -82.95609 33069 ft 479 kts 167°
2026-05-03 22:57 28.42763 -82.92557 33062 ft 480 kts 167°
2026-05-03 22:57 28.36646 -82.89506 33061 ft 480 kts 167°
2026-05-03 22:58 28.30570 -82.86473 33061 ft 480 kts 167°
2026-05-03 22:58 28.24441 -82.83420 33057 ft 481 kts 167°
2026-05-03 22:59 28.18315 -82.80372 33053 ft 481 kts 166°
2026-05-03 22:59 28.12173 -82.77324 33053 ft 481 kts 166°
2026-05-03 23:00 28.06027 -82.74277 33050 ft 482 kts 166°
2026-05-03 23:00 27.99790 -82.71716 33050 ft 471 kts 174°
2026-05-03 23:01 27.93489 -82.70114 33052 ft 463 kts 180°
2026-05-03 23:01 27.87117 -82.69008 33052 ft 463 kts 180°
2026-05-03 23:02 27.80740 -82.67776 33029 ft 465 kts 179°
2026-05-03 23:02 27.74354 -82.66517 33034 ft 466 kts 179°
2026-05-03 23:03 27.67988 -82.65264 33036 ft 467 kts 180°
2026-05-03 23:03 27.61545 -82.63998 33030 ft 468 kts 179°
2026-05-03 23:04 27.55123 -82.62744 33048 ft 468 kts 180°
2026-05-03 23:04 27.48703 -82.61133 33064 ft 477 kts 174°
2026-05-03 23:05 27.42301 -82.59101 33063 ft 478 kts 174°
2026-05-03 23:05 27.35914 -82.57204 33063 ft 478 kts 174°
2026-05-03 23:06 27.29470 -82.55313 33053 ft 478 kts 174°
2026-05-03 23:06 27.23020 -82.53426 33051 ft 479 kts 174°
2026-05-03 23:07 27.16560 -82.51535 33039 ft 479 kts 174°
2026-05-03 23:07 27.10102 -82.49649 33043 ft 479 kts 173°
2026-05-03 23:08 27.03680 -82.47775 33034 ft 480 kts 173°
2026-05-03 23:08 26.97211 -82.45873 33031 ft 482 kts 171°
2026-05-03 23:08 26.94071 -82.44410 33041 ft 495 kts 159°
2026-05-03 23:09 26.91070 -82.42477 33038 ft 498 kts 157°
2026-05-03 23:09 26.85157 -82.38361 33041 ft 505 kts 151°
2026-05-03 23:10 26.79814 -82.33211 32643 ft 505 kts 144°
2026-05-03 23:10 26.77241 -82.30576 32195 ft 498 kts 144°
2026-05-03 23:10 26.74654 -82.28044 31756 ft 490 kts 146°
2026-05-03 23:10 26.72061 -82.25594 31332 ft 485 kts 146°
2026-05-03 23:11 26.69505 -82.23158 30907 ft 482 kts 146°
2026-05-03 23:11 26.66971 -82.20729 30490 ft 478 kts 146°
2026-05-03 23:11 26.64449 -82.18317 30053 ft 475 kts 146°
2026-05-03 23:11 26.61939 -82.15922 29568 ft 472 kts 146°
2026-05-03 23:12 26.59448 -82.13543 29088 ft 470 kts 146°
2026-05-03 23:12 26.56970 -82.11179 28614 ft 467 kts 146°
2026-05-03 23:12 26.54502 -82.08827 28156 ft 465 kts 146°
2026-05-03 23:12 26.52083 -82.06518 27707 ft 462 kts 146°
2026-05-03 23:13 26.49660 -82.04157 27254 ft 461 kts 145°
2026-05-03 23:13 26.47288 -82.01755 26808 ft 459 kts 144°
2026-05-03 23:13 26.44926 -81.99367 26377 ft 457 kts 144°
2026-05-03 23:13 26.42568 -81.96997 25948 ft 455 kts 144°
2026-05-03 23:14 26.40222 -81.94638 25527 ft 453 kts 144°
2026-05-03 23:14 26.37888 -81.92292 25116 ft 451 kts 144°
2026-05-03 23:14 26.35561 -81.89953 24716 ft 449 kts 144°
2026-05-03 23:14 26.33247 -81.87627 24297 ft 447 kts 144°
2026-05-03 23:15 26.30952 -81.85316 23893 ft 439 kts 144°
2026-05-03 23:15 26.28713 -81.83065 23476 ft 428 kts 144°
2026-05-03 23:15 26.26520 -81.80875 23002 ft 419 kts 145°
2026-05-03 23:15 26.24382 -81.78716 22525 ft 413 kts 141°
2026-05-03 23:16 26.22668 -81.76123 22068 ft 418 kts 125°
2026-05-03 23:16 26.21393 -81.73226 21638 ft 416 kts 119°
2026-05-03 23:16 26.20247 -81.70286 21198 ft 411 kts 118°
2026-05-03 23:16 26.19110 -81.67388 20755 ft 406 kts 120°
2026-05-03 23:17 26.17925 -81.64561 20320 ft 401 kts 121°
2026-05-03 23:17 26.16720 -81.61831 19901 ft 397 kts 122°
2026-05-03 23:17 26.15516 -81.59084 19476 ft 393 kts 121°
2026-05-03 23:17 26.14327 -81.56354 19072 ft 390 kts 121°
2026-05-03 23:18 26.13148 -81.53648 18664 ft 387 kts 121°
2026-05-03 23:18 26.11976 -81.50958 18254 ft 384 kts 121°
2026-05-03 23:18 26.10810 -81.48287 17797 ft 382 kts 121°
2026-05-03 23:18 26.09652 -81.45638 17343 ft 380 kts 121°
2026-05-03 23:19 26.08494 -81.42986 16888 ft 382 kts 121°
2026-05-03 23:19 26.07325 -81.40309 16434 ft 386 kts 121°
2026-05-03 23:19 26.06150 -81.37611 16006 ft 389 kts 120°
2026-05-03 23:19 26.04968 -81.34889 15581 ft 390 kts 120°
2026-05-03 23:20 26.03803 -81.32213 15182 ft 388 kts 120°
2026-05-03 23:20 26.02629 -81.29518 14783 ft 386 kts 120°
2026-05-03 23:20 26.01455 -81.26831 14363 ft 384 kts 120°
2026-05-03 23:20 26.00296 -81.24167 13957 ft 382 kts 120°
2026-05-03 23:21 25.99140 -81.21515 13506 ft 378 kts 120°
2026-05-03 23:21 25.97998 -81.18902 13044 ft 372 kts 120°
2026-05-03 23:21 25.96876 -81.16333 12591 ft 367 kts 120°
2026-05-03 23:21 25.95764 -81.13799 12173 ft 362 kts 120°
2026-05-03 23:22 25.93588 -81.08826 11288 ft 351 kts 119°
2026-05-03 23:22 25.92542 -81.06432 10846 ft 338 kts 119°
2026-05-03 23:22 25.91533 -81.04130 10406 ft 326 kts 119°
2026-05-03 23:23 25.90581 -81.01882 10085 ft 313 kts 117°
2026-05-03 23:23 25.89733 -80.99725 9915 ft 300 kts 116°
2026-05-03 23:23 25.88928 -80.97598 9652 ft 297 kts 116°
2026-05-03 23:23 25.88125 -80.95485 9357 ft 296 kts 116°
2026-05-03 23:24 25.87321 -80.93385 9051 ft 295 kts 116°
2026-05-03 23:24 25.86526 -80.91318 8753 ft 293 kts 115°
2026-05-03 23:24 25.85732 -80.89237 8460 ft 292 kts 116°
2026-05-03 23:24 25.84939 -80.87177 8262 ft 286 kts 115°
2026-05-03 23:25 25.84164 -80.85157 8003 ft 283 kts 115°
2026-05-03 23:25 25.83391 -80.83151 7732 ft 282 kts 115°
2026-05-03 23:25 25.82627 -80.81159 7465 ft 280 kts 115°
2026-05-03 23:25 25.81864 -80.79179 7200 ft 278 kts 115°
2026-05-03 23:26 25.81107 -80.77214 6940 ft 276 kts 115°
2026-05-03 23:26 25.80357 -80.75264 6687 ft 274 kts 115°
2026-05-03 23:26 25.79611 -80.73332 6434 ft 271 kts 115°
2026-05-03 23:26 25.78878 -80.71425 6192 ft 261 kts 115°
2026-05-03 23:27 25.78183 -80.69631 5941 ft 245 kts 115°
2026-05-03 23:27 25.77746 -80.68495 5764 ft 240 kts 114°
2026-05-03 23:27 25.77005 -80.66357 5434 ft 241 kts 102°
2026-05-03 23:28 25.76960 -80.65134 5257 ft 240 kts 87°
2026-05-03 23:28 25.77092 -80.63292 4994 ft 239 kts 84°
2026-05-03 23:28 25.77256 -80.61435 4752 ft 245 kts 84°
2026-05-03 23:28 25.77460 -80.58900 4401 ft 252 kts 85°
2026-05-03 23:29 25.77606 -80.56971 4092 ft 249 kts 86°
2026-05-03 23:29 25.77683 -80.55684 3881 ft 246 kts 86°
2026-05-03 23:29 25.77769 -80.53798 3559 ft 243 kts 88°
2026-05-03 23:29 25.77824 -80.51938 3276 ft 239 kts 89°
2026-05-03 23:30 25.77878 -80.50152 3135 ft 229 kts 88°
2026-05-03 23:30 25.77919 -80.48438 3069 ft 211 kts 89°
2026-05-03 23:30 25.77969 -80.46896 2791 ft 190 kts 88°
2026-05-03 23:30 25.78026 -80.45452 2518 ft 189 kts 88°
2026-05-03 23:31 25.78082 -80.44063 2268 ft 168 kts 90°
2026-05-03 23:31 25.78141 -80.42750 2023 ft 174 kts 89°
2026-05-03 23:31 25.78195 -80.41404 1801 ft 174 kts 88°
2026-05-03 23:31 25.78249 -80.40062 1580 ft 173 kts 87°
2026-05-03 23:32 25.78310 -80.38727 1346 ft 172 kts 86°
2026-05-03 23:32 25.78363 -80.37421 1127 ft 167 kts 87°
2026-05-03 23:32 25.78418 -80.36149 936 ft 163 kts 88°
2026-05-03 23:32 25.78467 -80.34905 729 ft 159 kts 87°
2026-05-03 23:33 25.78514 -80.33710 537 ft 151 kts 86°
2026-05-03 23:33 25.78566 -80.32583 307 ft 143 kts 86°
2026-05-03 23:33 25.78609 -80.31479 114 ft 145 kts 84°
2026-05-03 23:33 25.78657 -80.30424 14 ft 123 kts 85°
2026-05-03 23:34 25.78692 -80.29643 13 ft 75 kts 87°
2026-05-03 23:34 25.78707 -80.29355 13 ft 19 kts 86°
2026-05-03 23:34 25.78732 -80.29247 14 ft 14 kts 62°
2026-05-03 23:34 25.78786 -80.29174 13 ft 5 kts 45°